Wappingers Falls, NY

8:07 PM EST on February 27, 2017 (GMT -0500)
Dutchess County

Weather History for KPOU - August, 2014

Change the Weather History Date:

Tuesday, August 26, 2014

  Actual Average Record
Temperature  
Mean Temperature 73 °F 70 °F  
Max Temperature 88 °F 81 °F 92 °F (1949)
Min Temperature 58 °F 58 °F 43 °F (1963)
Degree Days  
Heating Degree Days 0 1  
Month to date heating degree days 3 4  
Since 1 June heating degree days 10 58  
Since 1 July heating degree days 3 9  
Cooling Degree Days 8 5  
Month to date cooling degree days 132 178  
Year to date cooling degree days 568 581  
Since 1 June cooling degree days 535 545  
Growing Degree Days 24 (Base 50)    
Moisture  
Dew Point 61 °F    
Average Humidity 67    
Maximum Humidity 93    
Minimum Humidity 39    
Precipitation  
Precipitation 0.00 in 0.12 in 1.19 in (1976)
Month to date precipitation 2.82 3.63  
Year to date precipitation 24.11 30.21  
Sea Level Pressure  
Sea Level Pressure 30.10 in    
Wind  
Wind Speed 2 mph (South)    
Max Wind Speed 7 mph    
Max Gust Speed -    
Visibility 10 miles    
Events      
T = Trace of Precipitation, MM = Missing Value Source: NWS Daily Summary

Daily Weather History Graph

Daily Weather History Graph

Search for Another Location

Airport or City:

Trip Planner

Search our weather history database for the weather conditions in past years. The results will help you decide how hot, cold, wet, or windy it might be!

Date:

Astronomy

Aug. 26, 2014 Rise Set
Actual Time 6:15 AM EDT 7:38 PM EDT
Civil Twilight 5:46 AM EDT 8:07 PM EDT
Nautical Twilight 5:11 AM EDT 8:42 PM EDT
Astronomical Twilight 4:34 AM EDT 9:18 PM EDT
Moon 7:14 AM EDT (8/26) 7:56 PM EDT (8/26)
Length of Visible Light 14h 20m
Length of Day
13h 23m
New Moon, 1% of the Moon is Illuminated
Aug 26
New Moon
Sep 2
First Quarter
Sep 8
Full
Sep 15
Last Quarter
Sep 24
New

Hourly Weather History & Observations

Time (EDT) Temp. Heat Index Dew Point Humidity Pressure Visibility Wind Dir Wind Speed Gust Speed Precip Events Conditions
12:53 AM 64.0 °F - 62.1 °F 93% 30.13 in 9.0 mi Calm Calm - N/A   Clear
1:53 AM 62.1 °F - 60.1 °F 93% 30.12 in 10.0 mi Calm Calm - N/A   Clear
2:53 AM 61.0 °F - 59.0 °F 93% 30.13 in 9.0 mi NNE 3.5 mph - N/A   Clear
3:53 AM 61.0 °F - 59.0 °F 93% 30.13 in 9.0 mi Calm Calm - N/A   Clear
5:53 AM 59.0 °F - 55.9 °F 90% 30.14 in 10.0 mi Calm Calm - N/A   Clear
6:53 AM 59.0 °F - 55.9 °F 90% 30.16 in 10.0 mi Calm Calm - N/A   Clear
8:53 AM 69.1 °F - 62.1 °F 78% 30.17 in 10.0 mi Calm Calm - N/A   Clear
9:53 AM 73.0 °F - 64.0 °F 73% 30.16 in 10.0 mi Calm Calm - N/A   Clear
10:53 AM 77.0 °F - 64.0 °F 64% 30.16 in 10.0 mi Calm Calm - N/A   Clear
11:53 AM 81.0 °F 82.2 °F 63.0 °F 54% 30.14 in 10.0 mi Calm Calm - N/A   Clear
12:53 PM 84.0 °F 84.4 °F 61.0 °F 46% 30.13 in 10.0 mi SW 4.6 mph - N/A   Clear
1:53 PM 84.9 °F 84.4 °F 59.0 °F 41% 30.11 in 10.0 mi SSE 4.6 mph - N/A   Clear
2:53 PM 87.1 °F 86.7 °F 60.1 °F 40% 30.09 in 10.0 mi Calm Calm - N/A   Scattered Clouds
3:53 PM 88.0 °F 87.6 °F 60.1 °F 39% 30.07 in 10.0 mi South 6.9 mph - N/A   Partly Cloudy
5:53 PM 86.0 °F 86.1 °F 61.0 °F 43% 30.03 in 10.0 mi South 4.6 mph - N/A   Clear
6:53 PM 82.9 °F 83.7 °F 62.1 °F 49% 30.03 in 10.0 mi South 4.6 mph - N/A   Clear
7:53 PM 79.0 °F - 64.0 °F 60% 30.04 in 10.0 mi Calm Calm - N/A   Clear
8:53 PM 78.1 °F - 64.0 °F 62% 30.06 in 10.0 mi Variable 3.5 mph - N/A   Scattered Clouds
9:53 PM 75.9 °F - 63.0 °F 64% 30.06 in 10.0 mi South 6.9 mph - N/A   Clear
10:53 PM 75.0 °F - 63.0 °F 66% 30.04 in 10.0 mi South 5.8 mph - N/A   Clear
11:53 PM 73.0 °F - 63.0 °F 71% 30.05 in 10.0 mi SSW 4.6 mph - N/A   Clear